MDT,Max TemperatureF,Mean TemperatureF,Min TemperatureF,Max Dew PointF,MeanDew PointF,Min DewpointF,Max Humidity, Mean Humidity, Min Humidity, Max Sea Level PressureIn, Mean Sea Level PressureIn, Min Sea Level PressureIn, Max VisibilityMiles, Mean VisibilityMiles, Min VisibilityMiles, Max Wind SpeedMPH, Mean Wind SpeedMPH, Max Gust SpeedMPH,PrecipitationIn, CloudCover, Events, WindDirDegrees
2012-9-1,85,73,61,54,48,40,72,50,27,29.79,29.73,29.68,10,10,9,28,10,35,T,1,Rain-Thunderstorm,110
2012-9-2,83,66,48,54,33,22,80,45,10,29.91,29.85,29.78,10,10,10,25,9,32,0.00,0,,281
2012-9-3,81,65,48,35,30,27,50,33,15,29.94,29.90,29.86,10,10,10,23,8,29,0.00,0,,306
2012-9-4,72,60,48,48,37,31,66,47,28,30.06,29.98,29.87,10,10,10,14,10,17,0.01,2,Rain,320
2012-9-5,81,62,43,39,36,32,76,48,19,30.08,29.96,29.84,10,10,10,22,7,28,0.00,1,,292
2012-9-6,71,58,44,48,41,34,71,50,28,30.20,30.08,29.98,10,10,9,21,9,30,0.01,2,Rain,356
2012-9-7,78,60,41,43,38,35,89,56,22,30.28,30.21,30.15,10,10,10,15,6,21,0.00,0,,227
2012-9-8,75,60,45,46,34,24,77,48,19,30.30,30.20,30.09,10,10,8,15,8,18,0.00,0,,80
2012-9-9,91,70,48,38,29,25,46,28,10,30.06,29.82,29.59,10,10,8,18,9,21,0.00,0,,107
2012-9-10,89,73,57,38,29,12,43,25,6,29.78,29.63,29.56,10,10,7,31,13,38,0.00,0,,285
2012-9-11,68,55,41,34,24,11,70,41,11,30.13,29.96,29.80,10,10,10,30,12,38,0.00,0,,290
2012-9-12,67,50,33,24,19,16,51,33,15,30.32,30.27,30.15,10,10,10,18,7,24,0.00,0,,292
2012-9-13,77,58,38,34,28,18,59,40,21,30.34,30.31,30.29,10,10,10,28,11,41,0.00,0,,46
2012-9-14,87,66,45,38,31,24,60,35,10,30.33,30.11,29.92,10,10,9,25,12,31,0.00,0,,137
2012-9-15,81,66,50,34,29,25,39,27,15,30.04,29.98,29.91,10,9,5,24,9,30,0.00,0,,329
2012-9-16,67,59,51,36,31,25,45,34,23,30.24,30.18,30.03,10,10,10,25,9,30,T,5,,31
2012-9-17,67,53,39,34,29,27,64,44,24,30.25,30.15,29.98,10,10,10,13,5,15,0.00,2,,108
2012-9-18,86,65,43,33,31,26,67,40,13,29.96,29.87,29.76,10,10,10,21,8,25,0.00,0,,299
2012-9-19,69,57,44,36,32,29,62,42,22,30.17,30.08,29.95,10,10,10,20,10,24,0.00,0,,320
2012-9-20,73,58,43,34,31,27,53,39,24,30.07,30.03,30.00,10,10,10,25,10,31,0.00,0,,318
2012-9-21,76,59,41,36,33,30,67,44,21,30.18,30.10,30.02,10,10,10,17,9,24,0.00,0,,338
2012-9-22,71,56,41,30,25,16,53,36,19,30.26,30.20,30.15,10,10,10,21,14,24,0.00,0,,105
2012-9-23,77,58,39,29,25,17,48,32,16,30.19,30.12,30.03,10,10,10,16,9,18,0.00,0,,112
2012-9-24,83,64,44,37,33,29,54,36,17,30.03,29.93,29.86,10,10,10,14,6,15,0.00,0,,25
2012-9-25,82,65,47,40,35,29,66,41,16,29.91,29.89,29.85,10,10,10,14,10,,0.00,0,,112
2012-9-26,71,60,49,47,41,39,67,49,31,30.08,30.02,29.93,10,10,10,20,8,22,T,2,,338
2012-9-27,76,61,45,48,43,38,100,65,29,30.14,30.10,30.06,10,8,4,12,6,14,0.00,1,,303
2012-9-28,80,64,47,47,41,35,86,55,23,30.08,29.99,29.86,10,10,9,17,11,21,0.00,0,,116
2012-9-29,82,64,46,40,37,35,71,46,20,29.97,29.88,29.83,10,9,2,22,8,28,0.00,0,,284
2012-9-30,73,57,40,45,40,35,79,57,35,30.30,30.12,29.96,10,10,5,28,9,40,0.00,2,,360